Year,Month,Day,Hour,Minute,Value (Times are PST for temperature in C)
2007,07,10,00,00,18.50
2007,07,10,00,01,18.50
2007,07,10,00,02,18.50
2007,07,10,00,03,18.40
2007,07,10,00,04,18.40
2007,07,10,00,05,18.40
2007,07,10,00,06,18.40
2007,07,10,00,07,18.50
2007,07,10,00,08,18.50
2007,07,10,00,09,18.50
2007,07,10,00,10,18.50
2007,07,10,00,11,18.50
2007,07,10,00,12,18.40
2007,07,10,00,13,18.40
2007,07,10,00,14,18.40
2007,07,10,00,15,18.30
2007,07,10,00,16,18.30
2007,07,10,00,17,18.20
2007,07,10,00,18,18.20
2007,07,10,00,19,18.20
2007,07,10,00,20,18.10
2007,07,10,00,21,18.00
2007,07,10,00,22,17.90
2007,07,10,00,23,17.90
2007,07,10,00,24,17.90
2007,07,10,00,25,17.90
2007,07,10,00,26,17.80
2007,07,10,00,27,17.80
2007,07,10,00,28,17.70
2007,07,10,00,29,17.70
2007,07,10,00,30,17.60
2007,07,10,00,31,17.50
2007,07,10,00,32,17.50
2007,07,10,00,33,17.40
2007,07,10,00,34,17.30
2007,07,10,00,35,17.30
2007,07,10,00,36,17.30
2007,07,10,00,37,17.30
2007,07,10,00,38,17.20
2007,07,10,00,39,17.20
2007,07,10,00,40,17.20
2007,07,10,00,41,17.20
2007,07,10,00,42,17.10
2007,07,10,00,43,17.10
2007,07,10,00,44,17.10
2007,07,10,00,45,17.10
2007,07,10,00,46,17.10
2007,07,10,00,47,17.10
2007,07,10,00,48,17.00
2007,07,10,00,49,17.00
2007,07,10,00,50,17.00
2007,07,10,00,51,17.00
2007,07,10,00,52,17.00
2007,07,10,00,53,17.00
2007,07,10,00,54,16.90
2007,07,10,00,55,16.90
2007,07,10,00,56,16.90
2007,07,10,00,57,16.90
2007,07,10,00,58,16.90
2007,07,10,00,59,16.90
2007,07,10,01,00,16.90
2007,07,10,01,01,16.90
2007,07,10,01,02,16.80
2007,07,10,01,03,16.80
2007,07,10,01,04,16.80
2007,07,10,01,05,16.80
2007,07,10,01,06,16.80
2007,07,10,01,07,16.80
2007,07,10,01,08,16.80
2007,07,10,01,09,16.80
2007,07,10,01,10,16.80
2007,07,10,01,11,16.80
2007,07,10,01,12,16.80
2007,07,10,01,13,16.80
2007,07,10,01,14,16.90
2007,07,10,01,15,16.90
2007,07,10,01,16,16.90
2007,07,10,01,17,16.90
2007,07,10,01,18,16.90
2007,07,10,01,19,16.90
2007,07,10,01,20,16.90
2007,07,10,01,21,16.90
2007,07,10,01,22,16.90
2007,07,10,01,23,16.90
2007,07,10,01,24,16.90
2007,07,10,01,25,16.90
2007,07,10,01,26,16.90
2007,07,10,01,27,16.90
2007,07,10,01,28,16.90
2007,07,10,01,29,16.90
2007,07,10,01,30,16.90
2007,07,10,01,31,16.90
2007,07,10,01,32,16.90
2007,07,10,01,33,16.90
2007,07,10,01,34,16.90
2007,07,10,01,35,16.90
2007,07,10,01,36,16.90
2007,07,10,01,37,16.90
2007,07,10,01,38,17.00
2007,07,10,01,39,17.00
2007,07,10,01,40,17.00
2007,07,10,01,41,17.00
2007,07,10,01,42,17.00
2007,07,10,01,43,17.00
2007,07,10,01,44,17.00
2007,07,10,01,45,17.00
2007,07,10,01,46,17.00
2007,07,10,01,47,17.00
2007,07,10,01,48,16.90
2007,07,10,01,49,16.90
2007,07,10,01,50,16.90
2007,07,10,01,51,16.90
2007,07,10,01,52,16.80
2007,07,10,01,53,16.80
2007,07,10,01,54,16.70
2007,07,10,01,55,16.70
2007,07,10,01,56,16.70
2007,07,10,01,57,16.60
2007,07,10,01,58,16.60
2007,07,10,01,59,16.60
2007,07,10,02,00,16.60
2007,07,10,02,01,16.60
2007,07,10,02,02,16.60
2007,07,10,02,03,16.60
2007,07,10,02,04,16.60
2007,07,10,02,05,16.60
2007,07,10,02,06,16.50
2007,07,10,02,07,16.40
2007,07,10,02,08,16.40
2007,07,10,02,09,16.40
2007,07,10,02,10,16.40
2007,07,10,02,11,16.40
2007,07,10,02,12,16.40
2007,07,10,02,13,16.40
2007,07,10,02,14,16.40
2007,07,10,02,15,16.30
2007,07,10,02,16,16.30
2007,07,10,02,17,16.30
2007,07,10,02,18,16.30
2007,07,10,02,19,16.20
2007,07,10,02,20,16.20
2007,07,10,02,21,16.30
2007,07,10,02,22,16.30
2007,07,10,02,23,16.30
2007,07,10,02,24,16.30
2007,07,10,02,25,16.40
2007,07,10,02,26,16.40
2007,07,10,02,27,16.40
2007,07,10,02,28,16.40
2007,07,10,02,29,16.40
2007,07,10,02,30,16.40
2007,07,10,02,31,16.30
2007,07,10,02,32,16.30
2007,07,10,02,33,16.30
2007,07,10,02,34,16.30
2007,07,10,02,35,16.30
2007,07,10,02,36,16.30
2007,07,10,02,37,16.30
2007,07,10,02,38,16.30
2007,07,10,02,39,16.30
2007,07,10,02,40,16.30
2007,07,10,02,41,16.30
2007,07,10,02,42,16.30
2007,07,10,02,43,16.30
2007,07,10,02,44,16.30
2007,07,10,02,45,16.30
2007,07,10,02,46,16.30
2007,07,10,02,47,16.30
2007,07,10,02,48,16.20
2007,07,10,02,49,16.20
2007,07,10,02,50,16.20
2007,07,10,02,51,16.20
2007,07,10,02,52,16.20
2007,07,10,02,53,16.10
2007,07,10,02,54,16.10
2007,07,10,02,55,16.10
2007,07,10,02,56,16.10
2007,07,10,02,57,16.10
2007,07,10,02,58,16.10
2007,07,10,02,59,16.10
2007,07,10,03,00,16.10
2007,07,10,03,01,16.10
2007,07,10,03,02,16.00
2007,07,10,03,03,15.90
2007,07,10,03,04,15.90
2007,07,10,03,05,15.90
2007,07,10,03,06,15.80
2007,07,10,03,07,15.80
2007,07,10,03,08,15.80
2007,07,10,03,09,15.80
2007,07,10,03,10,15.80
2007,07,10,03,11,15.80
2007,07,10,03,12,15.80
2007,07,10,03,13,15.80
2007,07,10,03,14,15.70
2007,07,10,03,15,15.70
2007,07,10,03,16,15.70
2007,07,10,03,17,15.70
2007,07,10,03,18,15.60
2007,07,10,03,19,15.60
2007,07,10,03,20,15.60
2007,07,10,03,21,15.60
2007,07,10,03,22,15.50
2007,07,10,03,23,15.50
2007,07,10,03,24,15.50
2007,07,10,03,25,15.40
2007,07,10,03,26,15.40
2007,07,10,03,27,15.40
2007,07,10,03,28,15.30
2007,07,10,03,29,15.30
2007,07,10,03,30,15.30
2007,07,10,03,31,15.30
2007,07,10,03,32,15.30
2007,07,10,03,33,15.30
2007,07,10,03,34,15.20
2007,07,10,03,35,15.20
2007,07,10,03,36,15.20
2007,07,10,03,37,15.20
2007,07,10,03,38,15.30
2007,07,10,03,39,15.30
2007,07,10,03,40,15.30
2007,07,10,03,41,15.30
2007,07,10,03,42,15.30
2007,07,10,03,43,15.30
2007,07,10,03,44,15.30
2007,07,10,03,45,15.30
2007,07,10,03,46,15.30
2007,07,10,03,47,15.30
2007,07,10,03,48,15.30
2007,07,10,03,49,15.30
2007,07,10,03,50,15.30
2007,07,10,03,51,15.30
2007,07,10,03,52,15.40
2007,07,10,03,53,15.50
2007,07,10,03,54,15.60
2007,07,10,03,55,15.60
2007,07,10,03,56,15.60
2007,07,10,03,57,15.50
2007,07,10,03,58,15.50
2007,07,10,03,59,15.50
2007,07,10,04,00,15.50
2007,07,10,04,01,15.40
2007,07,10,04,02,15.40
2007,07,10,04,03,15.40
2007,07,10,04,04,15.30
2007,07,10,04,05,15.30
2007,07,10,04,06,15.30
2007,07,10,04,07,15.20
2007,07,10,04,08,15.20
2007,07,10,04,09,15.20
2007,07,10,04,10,15.20
2007,07,10,04,11,15.10
2007,07,10,04,12,15.10
2007,07,10,04,13,15.10
2007,07,10,04,14,15.00
2007,07,10,04,15,15.00
2007,07,10,04,16,15.00
2007,07,10,04,17,15.00
2007,07,10,04,18,15.00
2007,07,10,04,19,14.90
2007,07,10,04,20,14.90
2007,07,10,04,21,14.90
2007,07,10,04,22,14.90
2007,07,10,04,23,14.90
2007,07,10,04,24,14.90
2007,07,10,04,25,14.80
2007,07,10,04,26,14.80
2007,07,10,04,27,14.80
2007,07,10,04,28,14.80
2007,07,10,04,29,14.80
2007,07,10,04,30,14.80
2007,07,10,04,31,14.80
2007,07,10,04,32,14.80
2007,07,10,04,33,14.80
2007,07,10,04,34,14.80
2007,07,10,04,35,14.80
2007,07,10,04,36,14.80
2007,07,10,04,37,14.80
2007,07,10,04,38,14.70
2007,07,10,04,39,14.70
2007,07,10,04,40,14.70
2007,07,10,04,41,14.70
2007,07,10,04,42,14.70
2007,07,10,04,43,14.70
2007,07,10,04,44,14.70
2007,07,10,04,45,14.60
2007,07,10,04,46,14.60
2007,07,10,04,47,14.60
2007,07,10,04,48,14.50
2007,07,10,04,49,14.50
2007,07,10,04,50,14.50
2007,07,10,04,51,14.60
2007,07,10,04,52,14.60
2007,07,10,04,53,14.50
2007,07,10,04,54,14.50
2007,07,10,04,55,14.50
2007,07,10,04,56,14.50
2007,07,10,04,57,14.50
2007,07,10,04,58,14.50
2007,07,10,04,59,14.50
2007,07,10,05,00,14.50
2007,07,10,05,01,14.50
2007,07,10,05,02,14.50
2007,07,10,05,03,14.60
2007,07,10,05,04,14.60
2007,07,10,05,05,14.60
2007,07,10,05,06,14.60
2007,07,10,05,07,14.60
2007,07,10,05,08,14.60
2007,07,10,05,09,14.60
2007,07,10,05,10,14.60
2007,07,10,05,11,14.60
2007,07,10,05,12,14.60
2007,07,10,05,13,14.50
2007,07,10,05,14,14.50
2007,07,10,05,15,14.50
2007,07,10,05,16,14.50
2007,07,10,05,17,14.50
2007,07,10,05,18,14.50
2007,07,10,05,19,14.50
2007,07,10,05,20,14.50
2007,07,10,05,21,14.50
2007,07,10,05,22,14.50
2007,07,10,05,23,14.50
2007,07,10,05,24,14.50
2007,07,10,05,25,14.50
2007,07,10,05,26,14.50
2007,07,10,05,27,14.50
2007,07,10,05,28,14.50
2007,07,10,05,29,14.50
2007,07,10,05,30,14.50
2007,07,10,05,31,14.50
2007,07,10,05,32,14.50
2007,07,10,05,33,14.50
2007,07,10,05,34,14.50
2007,07,10,05,35,14.50
2007,07,10,05,36,14.50
2007,07,10,05,37,14.50
2007,07,10,05,38,14.50
2007,07,10,05,39,14.50
2007,07,10,05,40,14.50
2007,07,10,05,41,14.50
2007,07,10,05,42,14.50
2007,07,10,05,43,14.50
2007,07,10,05,44,14.50
2007,07,10,05,45,14.50
2007,07,10,05,46,14.60
2007,07,10,05,47,14.60
2007,07,10,05,48,14.60
2007,07,10,05,49,14.60
2007,07,10,05,50,14.60
2007,07,10,05,51,14.70
2007,07,10,05,52,14.70
2007,07,10,05,53,14.80
2007,07,10,05,54,14.80
2007,07,10,05,55,14.80
2007,07,10,05,56,14.90
2007,07,10,05,57,15.00
2007,07,10,05,58,15.00
2007,07,10,05,59,15.10
2007,07,10,06,00,15.10
2007,07,10,06,01,15.10
2007,07,10,06,02,15.20
2007,07,10,06,03,15.30
2007,07,10,06,04,15.30
2007,07,10,06,05,15.40
2007,07,10,06,06,15.40
2007,07,10,06,07,15.40
2007,07,10,06,08,15.40
2007,07,10,06,09,15.40
2007,07,10,06,10,15.50
2007,07,10,06,11,15.50
2007,07,10,06,12,15.60
2007,07,10,06,13,15.70
2007,07,10,06,14,15.80
2007,07,10,06,15,15.80
2007,07,10,06,16,15.80
2007,07,10,06,17,15.80
2007,07,10,06,18,15.80
2007,07,10,06,19,15.80
2007,07,10,06,20,15.90
2007,07,10,06,21,16.00
2007,07,10,06,22,16.10
2007,07,10,06,23,16.20
2007,07,10,06,24,16.20
2007,07,10,06,25,16.30
2007,07,10,06,26,16.30
2007,07,10,06,27,16.30
2007,07,10,06,28,16.40
2007,07,10,06,29,16.40
2007,07,10,06,30,16.40
2007,07,10,06,31,16.40
2007,07,10,06,32,16.40
2007,07,10,06,33,16.40
2007,07,10,06,34,16.40
2007,07,10,06,35,16.40
2007,07,10,06,36,16.40
2007,07,10,06,37,16.40
2007,07,10,06,38,16.40
2007,07,10,06,39,16.50
2007,07,10,06,40,16.60
2007,07,10,06,41,16.60
2007,07,10,06,42,16.70
2007,07,10,06,43,16.70
2007,07,10,06,44,16.70
2007,07,10,06,45,16.70
2007,07,10,06,46,16.70
2007,07,10,06,47,16.70
2007,07,10,06,48,16.80
2007,07,10,06,49,16.80
2007,07,10,06,50,16.90
2007,07,10,06,51,17.00
2007,07,10,06,52,17.00
2007,07,10,06,53,17.10
2007,07,10,06,54,17.20
2007,07,10,06,55,17.30
2007,07,10,06,56,17.30
2007,07,10,06,57,17.40
2007,07,10,06,58,17.40
2007,07,10,06,59,17.50
2007,07,10,07,00,17.50
2007,07,10,07,01,17.60
2007,07,10,07,02,17.60
2007,07,10,07,03,17.70
2007,07,10,07,04,17.80
2007,07,10,07,05,17.80
2007,07,10,07,06,17.90
2007,07,10,07,07,17.90
2007,07,10,07,08,17.90
2007,07,10,07,09,18.10
2007,07,10,07,10,18.20
2007,07,10,07,11,18.50
2007,07,10,07,12,18.70
2007,07,10,07,13,18.90
2007,07,10,07,14,19.00
2007,07,10,07,15,19.10
2007,07,10,07,16,19.20
2007,07,10,07,17,19.30
2007,07,10,07,18,19.40
2007,07,10,07,19,19.50
2007,07,10,07,20,19.60
2007,07,10,07,21,19.60
2007,07,10,07,22,19.70
2007,07,10,07,23,19.90
2007,07,10,07,24,19.90
2007,07,10,07,25,20.10
2007,07,10,07,26,20.10
2007,07,10,07,27,20.20
2007,07,10,07,28,20.20
2007,07,10,07,29,20.20
2007,07,10,07,30,20.20
2007,07,10,07,31,20.30
2007,07,10,07,32,20.40
2007,07,10,07,33,20.50
2007,07,10,07,34,20.70
2007,07,10,07,35,20.90
2007,07,10,07,36,21.10
2007,07,10,07,37,21.20
2007,07,10,07,38,21.30
2007,07,10,07,39,21.30
2007,07,10,07,40,21.50
2007,07,10,07,41,21.60
2007,07,10,07,42,21.60
2007,07,10,07,43,21.70
2007,07,10,07,44,21.70
2007,07,10,07,45,21.70
2007,07,10,07,46,21.60
2007,07,10,07,47,21.60
2007,07,10,07,48,21.60
2007,07,10,07,49,21.60
2007,07,10,07,50,21.60
2007,07,10,07,51,21.60
2007,07,10,07,52,21.70
2007,07,10,07,53,21.70
2007,07,10,07,54,21.70
2007,07,10,07,55,21.70
2007,07,10,07,56,21.70
2007,07,10,07,57,21.70
2007,07,10,07,58,21.70
2007,07,10,07,59,21.60
2007,07,10,08,00,21.60
2007,07,10,08,01,21.60
2007,07,10,08,02,21.60
2007,07,10,08,03,21.60
2007,07,10,08,04,21.50
2007,07,10,08,05,21.40
2007,07,10,08,06,21.30
2007,07,10,08,07,21.30
2007,07,10,08,08,21.30
2007,07,10,08,09,21.30
2007,07,10,08,10,21.30
2007,07,10,08,11,21.30
2007,07,10,08,12,21.50
2007,07,10,08,13,21.60
2007,07,10,08,14,21.80
2007,07,10,08,15,21.90
2007,07,10,08,16,22.10
2007,07,10,08,17,22.30
2007,07,10,08,18,22.40
2007,07,10,08,19,22.60
2007,07,10,08,20,22.60
2007,07,10,08,21,22.70
2007,07,10,08,22,22.80
2007,07,10,08,23,22.90
2007,07,10,08,24,23.00
2007,07,10,08,25,23.10
2007,07,10,08,26,23.30
2007,07,10,08,27,23.30
2007,07,10,08,28,23.30
2007,07,10,08,29,23.30
2007,07,10,08,30,23.30
2007,07,10,08,31,23.30
2007,07,10,08,32,23.30
2007,07,10,08,33,23.40
2007,07,10,08,34,23.50
2007,07,10,08,35,23.60
2007,07,10,08,36,23.70
2007,07,10,08,37,23.70
2007,07,10,08,38,23.80
2007,07,10,08,39,23.80
2007,07,10,08,40,23.90
2007,07,10,08,41,24.10
2007,07,10,08,42,24.10
2007,07,10,08,43,24.20
2007,07,10,08,44,24.20
2007,07,10,08,45,24.20
2007,07,10,08,46,24.30
2007,07,10,08,47,24.30
2007,07,10,08,48,24.40
2007,07,10,08,49,24.40
2007,07,10,08,50,24.50
2007,07,10,08,51,24.50
2007,07,10,08,52,24.50
2007,07,10,08,53,24.50
2007,07,10,08,54,24.50
2007,07,10,08,55,24.50
2007,07,10,08,56,24.60
2007,07,10,08,57,24.60
2007,07,10,08,58,24.70
2007,07,10,08,59,24.60
2007,07,10,09,00,24.60
2007,07,10,09,01,24.60
2007,07,10,09,02,24.70
2007,07,10,09,03,24.80
2007,07,10,09,04,24.90
2007,07,10,09,05,24.90
2007,07,10,09,06,25.00
2007,07,10,09,07,25.00
2007,07,10,09,08,25.00
2007,07,10,09,09,25.10
2007,07,10,09,10,25.10
2007,07,10,09,11,25.10
2007,07,10,09,12,25.10
2007,07,10,09,13,25.10
2007,07,10,09,14,25.00
2007,07,10,09,15,24.90
2007,07,10,09,16,24.90
2007,07,10,09,17,24.90
2007,07,10,09,18,24.90
2007,07,10,09,19,24.90
2007,07,10,09,20,24.90
2007,07,10,09,21,24.70
2007,07,10,09,22,24.50
2007,07,10,09,23,24.30
2007,07,10,09,24,24.20
2007,07,10,09,25,24.00
2007,07,10,09,26,23.90
2007,07,10,09,27,23.80
2007,07,10,09,28,23.70
2007,07,10,09,29,23.70
2007,07,10,09,30,23.70
2007,07,10,09,31,23.70
2007,07,10,09,32,23.70
2007,07,10,09,33,23.70
2007,07,10,09,34,23.70
2007,07,10,09,35,23.70
2007,07,10,09,36,23.80
2007,07,10,09,37,23.90
2007,07,10,09,38,24.00
2007,07,10,09,39,24.10
2007,07,10,09,40,24.10
2007,07,10,09,41,24.10
2007,07,10,09,42,24.10
2007,07,10,09,43,24.20
2007,07,10,09,44,24.30
2007,07,10,09,45,24.40
2007,07,10,09,46,24.40
2007,07,10,09,47,24.50
2007,07,10,09,48,24.50
2007,07,10,09,49,24.50
2007,07,10,09,50,24.50
2007,07,10,09,51,24.30
2007,07,10,09,52,24.30
2007,07,10,09,53,24.30
2007,07,10,09,54,24.40
2007,07,10,09,55,24.50
2007,07,10,09,56,24.40
2007,07,10,09,57,24.40
2007,07,10,09,58,24.40
2007,07,10,09,59,24.30
2007,07,10,10,00,24.30
2007,07,10,10,01,24.30
2007,07,10,10,02,24.20
2007,07,10,10,03,24.20
2007,07,10,10,04,24.10
2007,07,10,10,05,24.00
2007,07,10,10,06,23.80
2007,07,10,10,07,23.60
2007,07,10,10,08,23.30
2007,07,10,10,09,23.30
2007,07,10,10,10,23.30
2007,07,10,10,11,23.30
2007,07,10,10,12,23.30
2007,07,10,10,13,23.30
2007,07,10,10,14,23.30
2007,07,10,10,15,23.50
2007,07,10,10,16,23.60
2007,07,10,10,17,23.70
2007,07,10,10,18,23.80
2007,07,10,10,19,23.90
2007,07,10,10,20,24.00
2007,07,10,10,21,23.90
2007,07,10,10,22,23.90
2007,07,10,10,23,23.90
2007,07,10,10,24,24.00
2007,07,10,10,25,24.10
2007,07,10,10,26,24.20
2007,07,10,10,27,24.40
2007,07,10,10,28,24.40
2007,07,10,10,29,24.50
2007,07,10,10,30,24.50
2007,07,10,10,31,24.70
2007,07,10,10,32,24.70
2007,07,10,10,33,24.70
2007,07,10,10,34,24.70
2007,07,10,10,35,24.80
2007,07,10,10,36,24.90
2007,07,10,10,37,24.90
2007,07,10,10,38,25.00
2007,07,10,10,39,25.00
2007,07,10,10,40,25.10
2007,07,10,10,41,25.20
2007,07,10,10,42,25.20
2007,07,10,10,43,25.30
2007,07,10,10,44,25.40
2007,07,10,10,45,25.60
2007,07,10,10,46,25.60
2007,07,10,10,47,25.70
2007,07,10,10,48,25.80
2007,07,10,10,49,25.90
2007,07,10,10,50,25.70
2007,07,10,10,51,25.60
2007,07,10,10,52,25.50
2007,07,10,10,53,25.40
2007,07,10,10,54,25.40
2007,07,10,10,55,25.40
2007,07,10,10,56,25.40
2007,07,10,10,57,25.50
2007,07,10,10,58,25.60
2007,07,10,10,59,25.60
2007,07,10,11,00,25.60
2007,07,10,11,01,25.60
2007,07,10,11,02,25.70
2007,07,10,11,03,25.80
2007,07,10,11,04,25.80
2007,07,10,11,05,25.90
2007,07,10,11,06,26.00
2007,07,10,11,07,26.10
2007,07,10,11,08,26.30
2007,07,10,11,09,26.50
2007,07,10,11,10,26.60
2007,07,10,11,11,26.90
2007,07,10,11,12,27.00
2007,07,10,11,13,27.10
2007,07,10,11,14,27.20
2007,07,10,11,15,27.30
2007,07,10,11,16,27.50
2007,07,10,11,17,27.60
2007,07,10,11,18,27.80
2007,07,10,11,19,27.90
2007,07,10,11,20,28.00
2007,07,10,11,21,28.10
2007,07,10,11,22,28.20
2007,07,10,11,23,28.30
2007,07,10,11,24,28.60
2007,07,10,11,25,28.70
2007,07,10,11,26,28.90
2007,07,10,11,27,28.90
2007,07,10,11,28,29.00
2007,07,10,11,29,29.10
2007,07,10,11,30,29.20
2007,07,10,11,31,29.30
2007,07,10,11,32,29.30
2007,07,10,11,33,29.40
2007,07,10,11,34,29.50
2007,07,10,11,35,29.50
2007,07,10,11,36,29.50
2007,07,10,11,37,29.40
2007,07,10,11,38,29.40
2007,07,10,11,39,29.50
2007,07,10,11,40,29.50
2007,07,10,11,41,29.60
2007,07,10,11,42,29.70
2007,07,10,11,43,29.70
2007,07,10,11,44,29.70
2007,07,10,11,45,29.80
2007,07,10,11,46,29.70
2007,07,10,11,47,29.70
2007,07,10,11,48,29.70
2007,07,10,11,49,29.80
2007,07,10,11,50,29.80
2007,07,10,11,51,29.80
2007,07,10,11,52,29.70
2007,07,10,11,53,29.70
2007,07,10,11,54,29.70
2007,07,10,11,55,29.80
2007,07,10,11,56,29.80
2007,07,10,11,57,29.90
2007,07,10,11,58,29.90
2007,07,10,11,59,29.90
2007,07,10,12,00,29.80
2007,07,10,12,01,29.80
2007,07,10,12,02,29.90
2007,07,10,12,03,29.90
2007,07,10,12,04,30.00
2007,07,10,12,05,30.10
2007,07,10,12,06,30.20
2007,07,10,12,07,30.30
2007,07,10,12,08,30.30
2007,07,10,12,09,30.40
2007,07,10,12,10,30.40
2007,07,10,12,11,30.40
2007,07,10,12,12,30.40
2007,07,10,12,13,30.40
2007,07,10,12,14,30.50
2007,07,10,12,15,30.60
2007,07,10,12,16,30.60
2007,07,10,12,17,30.60
2007,07,10,12,18,30.60
2007,07,10,12,19,30.70
2007,07,10,12,20,30.70
2007,07,10,12,21,30.70
2007,07,10,12,22,30.60
2007,07,10,12,23,30.60
2007,07,10,12,24,30.60
2007,07,10,12,25,30.60
2007,07,10,12,26,30.60
2007,07,10,12,27,30.60
2007,07,10,12,28,30.60
2007,07,10,12,29,30.60
2007,07,10,12,30,30.70
2007,07,10,12,31,30.70
2007,07,10,12,32,30.80
2007,07,10,12,33,30.90
2007,07,10,12,34,30.90
2007,07,10,12,35,31.00
2007,07,10,12,36,31.10
2007,07,10,12,37,31.10
2007,07,10,12,38,31.20
2007,07,10,12,39,31.20
2007,07,10,12,40,31.20
2007,07,10,12,41,31.20
2007,07,10,12,42,31.20
2007,07,10,12,43,31.20
2007,07,10,12,44,31.10
2007,07,10,12,45,31.10
2007,07,10,12,46,31.00
2007,07,10,12,47,31.00
2007,07,10,12,48,31.00
2007,07,10,12,49,31.00
2007,07,10,12,50,31.00
2007,07,10,12,51,30.90
2007,07,10,12,52,30.80
2007,07,10,12,53,30.40
2007,07,10,12,54,30.00
2007,07,10,12,55,29.90
2007,07,10,12,56,29.80
2007,07,10,12,57,29.70
2007,07,10,12,58,29.60
2007,07,10,12,59,29.50
2007,07,10,13,00,29.40
2007,07,10,13,01,29.10
2007,07,10,13,02,28.90
2007,07,10,13,03,28.50
2007,07,10,13,04,28.10
2007,07,10,13,05,27.90
2007,07,10,13,06,27.70
2007,07,10,13,07,27.50
2007,07,10,13,08,27.30
2007,07,10,13,09,27.30
2007,07,10,13,10,27.30
2007,07,10,13,11,27.30
2007,07,10,13,12,27.30
2007,07,10,13,13,27.40
2007,07,10,13,14,27.50
2007,07,10,13,15,27.60
2007,07,10,13,16,27.80
2007,07,10,13,17,27.90
2007,07,10,13,18,28.10
2007,07,10,13,19,28.20
2007,07,10,13,20,28.30
2007,07,10,13,21,28.40
2007,07,10,13,22,28.60
2007,07,10,13,23,28.60
2007,07,10,13,24,28.60
2007,07,10,13,25,28.60
2007,07,10,13,26,28.60
2007,07,10,13,27,28.60
2007,07,10,13,28,28.60
2007,07,10,13,29,28.70
2007,07,10,13,30,28.70
2007,07,10,13,31,28.80
2007,07,10,13,32,28.80
2007,07,10,13,33,28.80
2007,07,10,13,34,28.80
2007,07,10,13,35,28.90
2007,07,10,13,36,28.90
2007,07,10,13,37,29.00
2007,07,10,13,38,29.10
2007,07,10,13,39,29.20
2007,07,10,13,40,29.30
2007,07,10,13,41,29.20
2007,07,10,13,42,29.10
2007,07,10,13,43,29.00
2007,07,10,13,44,28.90
2007,07,10,13,45,28.90
2007,07,10,13,46,28.90
2007,07,10,13,47,28.90
2007,07,10,13,48,29.00
2007,07,10,13,49,29.10
2007,07,10,13,50,29.10
2007,07,10,13,51,29.10
2007,07,10,13,52,29.20
2007,07,10,13,53,29.20
2007,07,10,13,54,29.20
2007,07,10,13,55,29.20
2007,07,10,13,56,29.20
2007,07,10,13,57,29.10
2007,07,10,13,58,29.00
2007,07,10,13,59,28.90
2007,07,10,14,00,28.90
2007,07,10,14,01,28.90
2007,07,10,14,02,28.90
2007,07,10,14,03,28.90
2007,07,10,14,04,28.90
2007,07,10,14,05,28.80
2007,07,10,14,06,28.80
2007,07,10,14,07,28.90
2007,07,10,14,08,29.00
2007,07,10,14,09,29.00
2007,07,10,14,10,28.90
2007,07,10,14,11,28.70
2007,07,10,14,12,28.70
2007,07,10,14,13,28.60
2007,07,10,14,14,28.40
2007,07,10,14,15,28.40
2007,07,10,14,16,28.40
2007,07,10,14,17,28.50
2007,07,10,14,18,28.60
2007,07,10,14,19,28.60
2007,07,10,14,20,28.60
2007,07,10,14,21,28.60
2007,07,10,14,22,28.60
2007,07,10,14,23,28.60
2007,07,10,14,24,28.70
2007,07,10,14,25,28.80
2007,07,10,14,26,28.90
2007,07,10,14,27,28.80
2007,07,10,14,28,28.80
2007,07,10,14,29,28.70
2007,07,10,14,30,28.60
2007,07,10,14,31,28.40
2007,07,10,14,32,28.20
2007,07,10,14,33,28.00
2007,07,10,14,34,28.10
2007,07,10,14,35,28.10
2007,07,10,14,36,28.10
2007,07,10,14,37,28.10
2007,07,10,14,38,28.20
2007,07,10,14,39,28.40
2007,07,10,14,40,28.60
2007,07,10,14,41,28.80
2007,07,10,14,42,28.90
2007,07,10,14,43,29.00
2007,07,10,14,44,29.10
2007,07,10,14,45,29.00
2007,07,10,14,46,28.90
2007,07,10,14,47,28.60
2007,07,10,14,48,28.30
2007,07,10,14,49,28.10
2007,07,10,14,50,27.90
2007,07,10,14,51,27.90
2007,07,10,14,52,28.00
2007,07,10,14,53,27.90
2007,07,10,14,54,28.00
2007,07,10,14,55,28.10
2007,07,10,14,56,28.30
2007,07,10,14,57,28.40
2007,07,10,14,58,28.60
2007,07,10,14,59,28.50
2007,07,10,15,00,28.40
2007,07,10,15,01,28.30
2007,07,10,15,02,28.10
2007,07,10,15,03,28.20
2007,07,10,15,04,28.00
2007,07,10,15,05,27.90
2007,07,10,15,06,27.90
2007,07,10,15,07,27.80
2007,07,10,15,08,27.80
2007,07,10,15,09,27.80
2007,07,10,15,10,27.90
2007,07,10,15,11,27.90
2007,07,10,15,12,28.00
2007,07,10,15,13,28.10
2007,07,10,15,14,28.20
2007,07,10,15,15,28.40
2007,07,10,15,16,28.60
2007,07,10,15,17,28.70
2007,07,10,15,18,28.80
2007,07,10,15,19,28.90
2007,07,10,15,20,28.80
2007,07,10,15,21,28.70
2007,07,10,15,22,28.80
2007,07,10,15,23,28.80
2007,07,10,15,24,28.90
2007,07,10,15,25,28.90
2007,07,10,15,26,28.90
2007,07,10,15,27,28.90
2007,07,10,15,28,29.00
2007,07,10,15,29,29.20
2007,07,10,15,30,29.30
2007,07,10,15,31,29.50
2007,07,10,15,32,29.40
2007,07,10,15,33,29.30
2007,07,10,15,34,29.20
2007,07,10,15,35,29.20
2007,07,10,15,36,29.20
2007,07,10,15,37,29.10
2007,07,10,15,38,28.90
2007,07,10,15,39,28.90
2007,07,10,15,40,28.90
2007,07,10,15,41,28.90
2007,07,10,15,42,28.90
2007,07,10,15,43,29.00
2007,07,10,15,44,29.10
2007,07,10,15,45,29.10
2007,07,10,15,46,29.10
2007,07,10,15,47,29.20
2007,07,10,15,48,29.30
2007,07,10,15,49,29.40
2007,07,10,15,50,29.40
2007,07,10,15,51,29.40
2007,07,10,15,52,29.50
2007,07,10,15,53,29.50
2007,07,10,15,54,29.50
2007,07,10,15,55,29.40
2007,07,10,15,56,29.40
2007,07,10,15,57,29.40
2007,07,10,15,58,29.50
2007,07,10,15,59,29.50
2007,07,10,16,00,29.60
2007,07,10,16,01,29.70
2007,07,10,16,02,29.90
2007,07,10,16,03,30.00
2007,07,10,16,04,30.10
2007,07,10,16,05,30.30
2007,07,10,16,06,30.30
2007,07,10,16,07,30.30
2007,07,10,16,08,30.30
2007,07,10,16,09,30.10
2007,07,10,16,10,30.10
2007,07,10,16,11,30.10
2007,07,10,16,12,30.10
2007,07,10,16,13,30.00
2007,07,10,16,14,29.90
2007,07,10,16,15,29.90
2007,07,10,16,16,30.00
2007,07,10,16,17,30.10
2007,07,10,16,18,30.20
2007,07,10,16,19,30.30
2007,07,10,16,20,30.40
2007,07,10,16,21,30.30
2007,07,10,16,22,30.10
2007,07,10,16,23,29.90
2007,07,10,16,24,29.70
2007,07,10,16,25,29.70
2007,07,10,16,26,29.50
2007,07,10,16,27,29.50
2007,07,10,16,28,29.50
2007,07,10,16,29,29.40
2007,07,10,16,30,29.40
2007,07,10,16,31,29.50
2007,07,10,16,32,29.70
2007,07,10,16,33,29.70
2007,07,10,16,34,29.70
2007,07,10,16,35,29.60
2007,07,10,16,36,29.60
2007,07,10,16,37,29.70
2007,07,10,16,38,29.70
2007,07,10,16,39,29.70
2007,07,10,16,40,29.60
2007,07,10,16,41,29.60
2007,07,10,16,42,29.70
2007,07,10,16,43,29.90
2007,07,10,16,44,29.90
2007,07,10,16,45,29.90
2007,07,10,16,46,29.80
2007,07,10,16,47,29.70
2007,07,10,16,48,29.70
2007,07,10,16,49,29.80
2007,07,10,16,50,29.90
2007,07,10,16,51,29.90
2007,07,10,16,52,29.90
2007,07,10,16,53,29.80
2007,07,10,16,54,29.90
2007,07,10,16,55,29.90
2007,07,10,16,56,29.80
2007,07,10,16,57,29.80
2007,07,10,16,58,29.80
2007,07,10,16,59,29.70
2007,07,10,17,00,29.70
2007,07,10,17,01,29.80
2007,07,10,17,02,29.80
2007,07,10,17,03,29.90
2007,07,10,17,04,29.90
2007,07,10,17,05,30.00
2007,07,10,17,06,30.10
2007,07,10,17,07,30.10
2007,07,10,17,08,30.20
2007,07,10,17,09,30.30
2007,07,10,17,10,30.30
2007,07,10,17,11,30.50
2007,07,10,17,12,30.70
2007,07,10,17,13,30.70
2007,07,10,17,14,30.60
2007,07,10,17,15,30.60
2007,07,10,17,16,30.40
2007,07,10,17,17,30.40
2007,07,10,17,18,30.50
2007,07,10,17,19,30.40